| time (UTC) | temp C | wind direction | speed KPH | gust KPH | rain 1hr cm | rain 24hr cm | rain mn cm | humidity % | barometer mb |
| 20260502181529 | 12 | 136 | 0.0 | 1.6 | 0.00 | 0.28 | 0.28 | 69 | 1014.6 |
| 20260502163027 | 11 | 276 | 0.0 | 0.0 | 0.00 | 0.28 | 0.28 | 78 | 1015.6 |
| 20260502161517 | 11 | 41 | 0.0 | 0.0 | 0.00 | 0.28 | 0.28 | 80 | 1015.6 |
| 20260502151507 | 9 | 357 | 0.0 | 0.0 | 0.00 | 0.28 | 0.28 | 89 | 1015.9 |
| 20260502130107 | 6 | 316 | 0.0 | 0.0 | 0.13 | 0.18 | 0.18 | 92 | 1016.7 |
| 20260502123112 | 5 | 316 | 0.0 | 0.0 | 0.15 | 0.18 | 0.18 | 92 | 1016.7 |
| 20260502121544 | 5 | 313 | 0.0 | 0.0 | 0.10 | 0.13 | 0.13 | 91 | 1016.9 |
| 20260502114542 | 5 | 330 | 0.0 | 0.0 | 0.00 | 0.03 | 0.03 | 90 | 1015.9 |
| 20260502113038 | 5 | 328 | 0.0 | 0.0 | 0.03 | 0.03 | 0.03 | 91 | 1015.6 |
| 20260502111538 | 5 | 328 | 0.0 | 0.0 | 0.03 | 0.03 | 0.03 | 90 | 1015.6 |
| 20260502110046 | 5 | 328 | 0.0 | 0.0 | 0.03 | 0.03 | 0.03 | 90 | 1015.7 |
| 20260502104536 | 5 | 357 | 0.0 | 0.0 | 0.03 | 0.03 | 0.03 | 89 | 1015.7 |
| 20260502103035 | 5 | 19 | 0.0 | 0.0 | 0.00 | 0.00 | 0.00 | 87 | 1016.0 |
| 20260502101534 | 5 | 19 | 0.0 | 0.0 | 0.00 | 0.00 | 0.00 | 86 | 1015.5 |
| 20260502091530 | 5 | 288 | 0.0 | 0.0 | 0.00 | 0.00 | 0.00 | 79 | 1015.1 |
| 20260502071517 | 3 | 15 | 0.0 | 0.0 | 0.00 | 0.00 | 0.00 | 81 | 1015.9 |
| 20260502070017 | 3 | 335 | 0.0 | 0.0 | 0.00 | 0.00 | 0.00 | 83 | 1016.0 |
| 20260502064517 | 3 | 40 | 0.0 | 0.0 | 0.00 | 0.00 | 0.00 | 85 | 1015.9 |
| 20260502063015 | 2 | 40 | 0.0 | 0.0 | 0.00 | 0.00 | 0.00 | 85 | 1016.0 |
| 20260502061514 | 2 | 40 | 0.0 | 0.0 | 0.00 | 0.00 | 0.00 | 85 | 1016.0 |
| 20260502060013 | 2 | 44 | 0.0 | 0.0 | 0.00 | 0.00 | 0.00 | 82 | 1015.8 |
| 20260502054520 | 3 | 44 | 0.0 | 0.0 | 0.00 | 0.00 | 0.00 | 81 | 1016.0 |
| 20260502053008 | 3 | 44 | 0.0 | 0.0 | 0.00 | 0.00 | 0.00 | 78 | 1015.9 |
| 20260502051513 | 3 | 44 | 0.0 | 0.0 | 0.00 | 0.00 | 0.00 | 78 | 1016.1 |
| 20260502050022 | 4 | 44 | 0.0 | 0.0 | 0.00 | 0.00 | 0.00 | 77 | 1016.1 |
| 20260502044504 | 4 | 44 | 0.0 | 0.0 | 0.00 | 0.00 | 0.00 | 78 | 1016.0 |
| 20260502043002 | 3 | 44 | 0.0 | 0.0 | 0.00 | 0.00 | 0.00 | 78 | 1016.0 |
| 20260502041600 | 3 | 44 | 0.0 | 0.0 | 0.00 | 0.00 | 0.00 | 79 | 1015.7 |
| 20260502040107 | 3 | 44 | 0.0 | 0.0 | 0.00 | 0.00 | 0.00 | 78 | 1015.5 |
| 20260502034603 | 3 | 44 | 0.0 | 0.0 | 0.00 | 0.00 | 0.00 | 76 | 1015.5 |
| 20260502033100 | 3 | 44 | 0.0 | 0.0 | 0.00 | 0.00 | 0.00 | 74 | 1015.5 |
| 20260502031553 | 3 | 44 | 0.0 | 0.0 | 0.00 | 0.00 | 0.00 | 74 | 1015.5 |
| 20260502030051 | 3 | 44 | 0.0 | 0.0 | 0.00 | 0.00 | 0.00 | 71 | 1015.3 |
| 20260502024607 | 4 | 44 | 0.0 | 0.0 | 0.00 | 0.00 | 0.00 | 68 | 1015.2 |
| 20260502023047 | 5 | 44 | 0.0 | 0.0 | 0.00 | 0.00 | 0.00 | 66 | 1015.1 |
| 20260502021548 | 5 | 44 | 0.0 | 0.0 | 0.00 | 0.00 | 0.00 | 63 | 1015.0 |
| 20260502020046 | 5 | 44 | 0.0 | 0.0 | 0.00 | 0.00 | 0.00 | 60 | 1015.0 |
| 20260502014545 | 5 | 44 | 0.0 | 0.0 | 0.00 | 0.00 | 0.00 | 60 | 1015.1 |
| 20260502013045 | 6 | 44 | 0.0 | 0.0 | 0.00 | 0.00 | 0.00 | 58 | 1015.1 |
| 20260502011544 | 6 | 44 | 0.0 | 0.0 | 0.00 | 0.00 | 0.00 | 57 | 1015.0 |
| 20260502010051 | 7 | 44 | 0.0 | 0.0 | 0.00 | 0.00 | 0.00 | 54 | 1015.0 |
| 20260502004554 | 7 | 75 | 0.0 | 0.0 | 0.00 | 0.00 | 0.00 | 53 | 1014.7 |
| 20260502003040 | 8 | 75 | 0.0 | 0.0 | 0.00 | 0.00 | 0.00 | 49 | 1014.7 |
| 20260502001539 | 9 | 75 | 0.0 | 0.0 | 0.00 | 0.00 | 0.00 | 46 | 1014.4 |
| 20260502000037 | 10 | 75 | 0.0 | 0.0 | 0.00 | 0.00 | 0.00 | 45 | 1014.1 |
| 20260501234535 | 11 | 76 | 0.0 | 0.0 | 0.00 | 0.00 | 0.00 | 42 | 1013.9 |
| 20260501233034 | 12 | 76 | 0.0 | 0.0 | 0.00 | 0.00 | 0.00 | 38 | 1013.7 |
| 20260501231533 | 13 | 279 | 0.0 | 3.2 | 0.00 | 0.00 | 0.00 | 35 | 1013.5 |
| 20260501230031 | 13 | 1 | 0.0 | 0.0 | 0.00 | 0.00 | 0.00 | 34 | 1013.3 |
| 20260501224530 | 15 | 263 | 0.0 | 0.0 | 0.00 | 0.00 | 0.00 | 34 | 1013.2 |
| 20260501223031 | 15 | 285 | 0.0 | 0.0 | 0.00 | 0.00 | 0.00 | 33 | 1013.1 |
| 20260501221528 | 15 | 77 | 0.0 | 0.0 | 0.00 | 0.00 | 0.00 | 31 | 1012.9 |
| 20260501220033 | 15 | 306 | 0.0 | 3.2 | 0.00 | 0.00 | 0.00 | 30 | 1012.9 |
| 20260501214527 | 15 | 229 | 0.0 | 19.3 | 0.00 | 0.00 | 0.00 | 31 | 1012.7 |
| 20260501213041 | 15 | 19 | 0.0 | 6.4 | 0.00 | 0.00 | 0.00 | 32 | 1012.4 |
| 20260501211528 | 16 | 360 | 0.0 | 14.5 | 0.00 | 0.00 | 0.00 | 31 | 1012.2 |
| 20260501210037 | 16 | 328 | 0.0 | 11.3 | 0.00 | 0.00 | 0.00 | 31 | 1012.1 |
| 20260501204526 | 16 | 10 | 0.0 | 1.6 | 0.00 | 0.00 | 0.00 | 30 | 1012.1 |
| 20260501203022 | 16 | 271 | 0.0 | 8.0 | 0.00 | 0.00 | 0.00 | 29 | 1012.0 |
| 20260501201526 | 16 | 272 | 0.0 | 11.3 | 0.00 | 0.00 | 0.00 | 32 | 1011.9 |
| 20260501200021 | 16 | 358 | 0.0 | 6.4 | 0.00 | 0.00 | 0.00 | 31 | 1011.9 |
| 20260501194525 | 16 | 42 | 1.6 | 11.3 | 0.00 | 0.00 | 0.00 | 34 | 1012.1 |
| 20260501193023 | 17 | 207 | 0.0 | 8.0 | 0.00 | 0.00 | 0.00 | 30 | 1012.1 |
| 20260501191518 | 17 | 147 | 0.0 | 9.7 | 0.00 | 0.00 | 0.00 | 35 | 1012.0 |
| 20260501190018 | 16 | 357 | 0.0 | 6.4 | 0.00 | 0.05 | 0.00 | 35 | 1012.0 |
| 20260501184516 | 16 | 161 | 0.0 | 11.3 | 0.00 | 0.05 | 0.00 | 34 | 1012.1 |
| 20260501183015 | 16 | 293 | 0.0 | 27.4 | 0.00 | 0.05 | 0.00 | 37 | 1012.3 |